OBJECT F, 56748

Orbit data source: Space-Track

You're viewing an Uncataloged Satellite

Recently launched and/or uncataloged satellites may have evolving metadata. Metadata may include but not limited to: Owner, Maufacturer, Bus, Motor, and Mission.

OBJECT F, 56748 is a South Korean satellite in SSO that was launched on Thu, 25 May 2023 UTC via an NURI launch vehicle from the Naro Space Center, South Korea (NSC). Unknown objects in Earth's orbit typically refer to objects detected orbiting the Earth but have not yet been identified or cataloged. These objects could be anything from previously untracked satellites, spent rocket stages, debris from satellite collisions, or even natural meteoroids temporarily captured by Earth's gravity.

Loading next visibility...
Identifier
56748, 2023-072F
Orbit
SSO
Country
Flag of UnknownUnknown / SKOR
Related business
None
Manufacturer
Unknown
Mission
Operational Commercial Imaging
Bus & Motor
Unknown
Mass
Unknown
Launch date (UTC)
2023-05-25 (2 years ago)
Launch vehicle
NURI
Launch site
Naro Space Center, South Korea (NSC)
Object type
Unknown
Shape & HBR
Box, 0.1 m
Radar Cross Section
0.035 m², Medium (>0.1 m² and < 1m²)

Expand to show TLE details & history
Last TLE update: 9 hours ago

TLE from 9 hours ago
0 OBJECT F
1 56748U 23072F   25286.66187034  .00013108  00000-0  51710-3 0  9992
2 56748  97.5222 117.2749 0006890 156.3031 203.8525 15.25664412132111
Epoch: 2025-10-13T15:53Z
TLE epoch observation values (Epoch: 2025-10-13T15:53:05.597Z)
Latitude
-0.00006°
Longitude
-143.45985°
Altitude
496.214 km
Speed
7.614 km/s
True Right ascension
07h 49m 05s
True Declination
0° 00' 00"
Sunlit
Object was in daylight at epoch
Visualization orbit readout
Latitude
Unknown
Longitude
Unknown
Altitude
Unknown
Speed
Unknown
Apparent Right ascension
Unknown
Apparent Declination
Unknown
Sunlit
N/A
Visualization observer readout
Local Sidereal Time
19:43:27
Azimuth
Unknown
Elevation
Unknown
Doppler factor
Unknown
Orbital elements
Apogee altitude
490.484 km
Perigee altitude
481.025 km
Semi-major axis
6,863.891 km
Eccentricity
0.00069
Inclination
97.5222°
RAAN
117.2749°
Arg. of periapsis
156.3031°
True anomaly
203.8206°
Mean anomaly
203.8525°
Eccentric anomaly
203.83655°
Mean motion
3.8167 °/min
Orbital period
94.32 mins
BSTAR
0.0005171
Loading maneuver chart data...
Computing Atmospheric mass density...
Loading historical data...
Loading historical data...
Loading historical data...
Loading historical data...
Loading historical data...
Loading historical data...
Loading historical data...

Documentation

Showing up to 5 results
|